Regional Weather Roundup
Issued by NWS

Home | Current Version | Previous Version | Graphics & Text | Print | Product List | Glossary Off
Versions: 1 2 3 4 5 6 7 8 9 10 11 12 13 14 15 16 17 18 19 20 21 22 23 24 25 26 27 28 29 30 31 32 33 34 35 36 37 38 39 40 41 42 43 44 45 46 47 48 49 50

000
ASUS43 KMKX 020700
RWRWI

WISCONSIN REGIONAL WEATHER ROUNDUP
NATIONAL WEATHER SERVICE MILWAUKEE/SULLIVAN WI
200 AM CDT MON MAY 02 2016

NOTE: "FAIR" INDICATES FEW OR NO CLOUDS BELOW 12,000 FEET WITH NO
SIGNIFICANT WEATHER AND/OR OBSTRUCTIONS TO VISIBILITY.

WIZ001-002-006>008-014>016-023>028-020800-
NORTHWEST WISCONSIN

CITY           SKY/WX    TMP DP  RH WIND       PRES   REMARKS
SUPERIOR ARPT  CLEAR     29  29  99 CALM      30.15F
ASHLAND        CLEAR     28  28 100 CALM      30.15S
HAYWARD        CLEAR     33  29  85 N3        30.13S
SIREN          CLEAR     34  32  92 CALM      30.13S
CUMBERLAND     CLEAR     41  32  70 NE3       30.12S
RICE LAKE      CLEAR     42  33  71 CALM      30.13S
CHETEK         PTCLDY    45  35  68 NE3       30.12S
LADYSMITH      CLEAR     39  33  81 CALM      30.13S
EAU CLAIRE     CLEAR     41  35  79 N3        30.11R
MENOMONIE      CLEAR     44  33  63 N3        30.11S
NEW RICHMOND   CLEAR     41  34  75 NE3       30.11F
OSCEOLA        CLEAR     40  32  74 CALM      30.15S
$$

WIZ003>005-009-010-017-018-020800-
NORTH CENTRAL WISCONSIN

CITY           SKY/WX    TMP DP  RH WIND       PRES   REMARKS
MANITOWISH WTR CLEAR     34  34  99 CALM      30.12S
ARBOR VITAE    CLEAR     38  33  82 CALM      30.11S
WOODRUFF       CLEAR     38  33  82 CALM      30.11S
RHINELANDER    CLEAR     38  30  73 CALM      30.12S
EAGLE RIVER    CLEAR     32  31  98 CALM      30.11F
LAND O LAKES   CLEAR     31  30  96 CALM      30.13S
PHILLIPS       CLEAR     36  33  89 CALM      30.11S
TOMAHAWK       CLEAR     33  31  92 CALM      30.12S
MEDFORD        CLEAR     38  33  80 CALM      30.11S
MERRILL        CLEAR     35  33  90 CALM      30.12S
$$

WIZ029-030-035-036-043>047-020800-
CENTRAL WISCONSIN

CITY           SKY/WX    TMP DP  RH WIND       PRES   REMARKS
WAUSAU         CLEAR     42  35  76 CALM      30.10S
MOSINEE        PTCLDY    41  36  81 NW5       30.12S
MARSHFIELD     CLEAR     43  33  68 NE3       30.10F
STEVENS POINT  PTCLDY    34  32  93 CALM      30.12R
WAUPACA        CLEAR     41  37  84 N6        30.10S
WAUTOMA        CLEAR     36  35  96 CALM      30.11R
WISC RAPIDS    MOCLDY    36  32  85 N6        30.12R WCI  31
CAMP DOUGLAS   NOT AVBL
$$

WIZ011>013-019>022-031-037>040-048>050-020800-
NORTHEAST WISCONSIN

CITY           SKY/WX    TMP DP  RH WIND       PRES   REMARKS
ANTIGO         CLEAR     36  32  88 CALM      30.11S
SHAWANO        CLEAR     43  36  76 NE3       30.11S
OCONTO         CLEAR     38  38 100 N5        30.10S WCI  35
STURGEON BAY   CLEAR     43  34  70 N7        30.11S
GREEN BAY      CLEAR     43  37  79 N5        30.10R
MANITOWOC      NOT AVBL
APPLETON       CLEAR     39  34  81 NE6       30.08R WCI  35
CLINTONVILLE   CLEAR     39  34  81 CALM      30.11R
OSHKOSH        CLEAR     43  38  82 N6        30.09R
$$

WIZ032>034-041-042-053>061-020800-
SOUTHWEST WISCONSIN

CITY           SKY/WX    TMP DP  RH WIND       PRES   REMARKS
LA CROSSE      CLOUDY    44  39  82 E3        30.11S
SPARTA         CLEAR     33  32  95 CALM      30.12S
VIROQUA        PTCLDY    43  38  82 CALM      30.11R
BOSCOBEL       FOG       39  38  96 CALM      30.11R VSB 1/4
PRAIRIE DU CHI FOG       43  42  96 CALM      30.11F VSB 1/4
PLATTEVILLE    MOCLDY    45  43  92 N8        30.09R
$$

WIZ056-057-062-063-064-067-068-020800-
SOUTH CENTRAL WISCONSIN

CITY           SKY/WX    TMP DP  RH WIND       PRES   REMARKS
REEDSBURG      CLEAR     38  37  95 W3        30.10R
BARABOO/DELLS  CLEAR     39  37  92 CALM      30.09S
LONE ROCK      NOT AVBL
MINERAL POINT  CLOUDY    45  43  93 N3        30.09R
MADISON        CLOUDY    47  41  80 N5        30.08R
MIDDLETON      CLOUDY    48  43  81 NE5       30.09R
WATERTOWN      CLOUDY    46  42  84 N3        30.07R
MONROE         CLOUDY    45  45 100 NE7       30.07R
JANESVILLE     CLOUDY    46  46 100 NE3       30.06R
$$

WIZ051-052-058>065-066-070>072-020800-
SOUTHEAST WISCONSIN

CITY           SKY/WX    TMP DP  RH WIND       PRES   REMARKS
MILWAUKEE      CLOUDY    44  41  89 N8        30.05F
WAUKESHA       CLOUDY    43  41  93 CALM      30.07S
MILWAUKEE/TIMM CLOUDY    46  39  76 NE5       30.07S
RACINE         CLOUDY    44  40  85 N6        30.07S
BURLINGTON     CLOUDY    44  43  97 NE3       30.05F
KENOSHA        CLOUDY    45  42  89 N7        30.06R
FOND DU LAC    CLOUDY    43  38  82 NW5       30.08S
SHEBOYGAN      CLOUDY    44  36  73 N5        30.08R
WEST BEND      CLOUDY    45  37  76 NE5       30.07S
JUNEAU         CLOUDY    46  40  80 N5        30.09R
$$

LSZ147-162-020800-
LAKE SUPERIOR

STATION/POSITION TIME  TEMP    WIND        PRES    WAVE
                       AIR SEA DIR/SP/G            HT/PER
                 (UTC) (F)     (DEG/KT/KT) (MB)    (FT/S)
W MID LAKE BUOY  0550   37 37  330/  4/  6 1021.7F   1/ 5
DEVILS ISLAND    0600   39      10/  7/  8 1021.8R
SAXON HARBOR     0600   30     190/  4/  5 1020.3S
$$

LMZ867-665-643>646-020800-
LAKE MICHIGAN

STATION/POSITION TIME  TEMP    WIND        PRES    WAVE
                       AIR SEA DIR/SP/G            HT/PER
                 (UTC) (F)     (DEG/KT/KT) (MB)    (FT/S)
CHAMBERS ISLAND  0600   43     340/  7/  8 1019.3S
N MID LAKE BUOY  0550   41 38  340/ 10/ 10 1018.7F   1
NORTHPORT PIER   0600   42     300/  7/  9 1019.0S
KEWAUNEE LAKESHO 0600   46      10/  7/  9 1017.9S
SHEBOYGAN LAKESH 0600   44      10/ 13/ 14 1019.1R
PORT WASHINGTON  0640   46      10/  6/ 13 1019.0S
S MID LAKE BUOY  0550   42 40   50/  6/  8 1017.1R   2/ 4
KENOSHA   LAKESH 0600   45      20/ 11/ 12 1017.6R
$$

TC  - TEMPERATURE IN CELSIUS
VSB - VISIBILITY IN STATUTE MILES
WCI - WIND CHILL INDEX
HX  - HEAT INDEX





USA.gov is the U.S. government's official web portal to all federal, state and local government web resources and services.